Time,TemperatureF,DewpointF,PressureIn,WindDirection,WindDirectionDegrees,WindSpeedMPH,WindSpeedGustMPH,Humidity,HourlyPrecipIn,Conditions,Clouds,dailyrainin,SolarRadiationWatts/m^2,SoftwareType,DateUTC
2013-01-01 00:02:00,30.0,26.0,-100.00,East,99,1.0,6.0,84,-99.99,,,0.00,0.000000,,2013-01-01 08:02:00,
2013-01-01 00:11:00,30.0,26.0,30.56,East,99,1.0,6.0,84,-99.99,,,0.00,0.000000,,2013-01-01 08:11:00,
2013-01-01 00:42:00,30.0,26.0,30.57,ENE,74,1.0,5.0,86,-99.99,,,0.00,0.000000,,2013-01-01 08:42:00,
2013-01-01 00:53:00,30.0,26.0,30.57,ENE,74,1.0,5.0,86,-99.99,,,0.00,0.000000,,2013-01-01 08:53:00,
2013-01-01 01:02:00,30.0,26.0,30.57,ENE,74,1.0,5.0,86,-99.99,,,0.00,0.000000,,2013-01-01 09:02:00,
2013-01-01 01:11:00,30.0,26.0,30.57,ENE,74,1.0,5.0,86,-99.99,,,0.00,0.000000,,2013-01-01 09:11:00,
2013-01-01 01:42:00,32.0,24.0,30.57,ENE,77,5.0,18.0,72,-99.99,,,0.00,0.000000,,2013-01-01 09:42:00,
2013-01-01 01:52:00,32.0,24.0,30.57,ENE,77,5.0,18.0,72,-99.99,,,0.00,0.000000,,2013-01-01 09:52:00,
2013-01-01 02:02:00,32.0,24.0,30.57,ENE,77,5.0,18.0,72,-99.99,,,0.00,0.000000,,2013-01-01 10:02:00,
2013-01-01 02:11:00,32.0,24.0,30.57,ENE,77,5.0,18.0,72,-99.99,,,0.00,0.000000,,2013-01-01 10:11:00,
2013-01-01 02:42:00,31.0,26.0,30.59,ESE,111,2.0,11.0,82,-99.99,,,0.00,0.000000,,2013-01-01 10:42:00,
2013-01-01 02:52:00,31.0,26.0,30.59,ESE,111,2.0,11.0,82,-99.99,,,0.00,0.000000,,2013-01-01 10:52:00,
2013-01-01 03:02:00,31.0,26.0,30.59,ESE,111,2.0,11.0,82,-99.99,,,0.00,0.000000,,2013-01-01 11:02:00,
2013-01-01 03:12:00,31.0,26.0,30.59,ESE,111,2.0,11.0,82,-99.99,,,0.00,0.000000,,2013-01-01 11:12:00,
2013-01-01 03:32:00,31.0,25.0,30.59,East,84,4.0,13.0,77,-99.99,,,0.00,0.000000,,2013-01-01 11:32:00,
2013-01-01 03:42:00,31.0,25.0,30.59,East,84,4.0,13.0,77,-99.99,,,0.00,0.000000,,2013-01-01 11:42:00,
2013-01-01 03:53:00,31.0,25.0,30.59,East,84,4.0,13.0,77,-99.99,,,0.00,0.000000,,2013-01-01 11:53:00,
2013-01-01 04:02:00,31.0,25.0,30.59,East,84,4.0,13.0,77,-99.99,,,0.00,0.000000,,2013-01-01 12:02:00,
2013-01-01 04:12:00,31.0,25.0,30.59,East,84,4.0,13.0,77,-99.99,,,0.00,0.000000,,2013-01-01 12:12:00,
2013-01-01 04:32:00,30.0,25.0,30.59,East,93,3.0,8.0,81,-99.99,,,0.00,0.000000,,2013-01-01 12:32:00,
2013-01-01 04:42:00,30.0,25.0,30.59,East,93,3.0,8.0,81,-99.99,,,0.00,0.000000,,2013-01-01 12:42:00,
2013-01-01 04:52:00,30.0,25.0,30.59,East,93,3.0,8.0,81,-99.99,,,0.00,0.000000,,2013-01-01 12:52:00,
2013-01-01 05:02:00,30.0,25.0,30.59,East,93,3.0,8.0,81,-99.99,,,0.00,0.000000,,2013-01-01 13:02:00,
2013-01-01 05:12:00,30.0,25.0,30.59,East,93,3.0,8.0,81,-99.99,,,0.00,0.000000,,2013-01-01 13:12:00,
2013-01-01 05:42:00,30.0,25.0,30.59,East,87,2.0,9.0,83,-99.99,,,0.00,0.000000,,2013-01-01 13:42:00,
2013-01-01 05:52:00,30.0,25.0,30.59,East,87,2.0,9.0,83,-99.99,,,0.00,0.000000,,2013-01-01 13:52:00,
2013-01-01 06:02:00,30.0,25.0,30.59,East,87,2.0,9.0,83,-99.99,,,0.00,0.000000,,2013-01-01 14:02:00,
2013-01-01 06:12:00,30.0,25.0,30.59,East,87,2.0,9.0,83,-99.99,,,0.00,0.000000,,2013-01-01 14:12:00,
2013-01-01 06:32:00,30.0,25.0,30.58,ENE,72,3.0,13.0,80,-99.99,,,0.00,0.000000,,2013-01-01 14:32:00,
2013-01-01 06:42:00,30.0,25.0,30.58,ENE,72,3.0,13.0,80,-99.99,,,0.00,0.000000,,2013-01-01 14:42:00,
2013-01-01 06:53:00,30.0,25.0,30.58,ENE,72,3.0,13.0,80,-99.99,,,0.00,0.000000,,2013-01-01 14:53:00,
2013-01-01 07:02:00,30.0,25.0,-100.00,ENE,72,3.0,13.0,80,-99.99,,,0.00,0.000000,,2013-01-01 15:02:00,
2013-01-01 07:12:00,30.0,25.0,30.58,ENE,72,3.0,13.0,80,-99.99,,,0.00,0.000000,,2013-01-01 15:12:00,
2013-01-01 07:33:00,32.0,25.0,30.58,ENE,78,5.0,19.0,74,-99.99,,,0.00,0.000000,,2013-01-01 15:33:00,
2013-01-01 07:42:00,32.0,25.0,30.58,ENE,78,5.0,19.0,74,-99.99,,,0.00,0.000000,,2013-01-01 15:42:00,
2013-01-01 07:53:00,32.0,25.0,30.58,ENE,78,5.0,19.0,74,-99.99,,,0.00,0.000000,,2013-01-01 15:53:00,
2013-01-01 08:02:00,32.0,25.0,30.58,ENE,78,5.0,19.0,74,-99.99,,,0.00,0.000000,,2013-01-01 16:02:00,
2013-01-01 08:12:00,32.0,25.0,30.58,ENE,78,5.0,19.0,74,-99.99,,,0.00,0.000000,,2013-01-01 16:12:00,
2013-01-01 08:32:00,32.0,24.0,30.60,East,90,7.0,21.0,72,-99.99,,,0.00,10.460000,,2013-01-01 16:32:00,
2013-01-01 08:42:00,32.0,24.0,30.60,East,90,7.0,21.0,72,-99.99,,,0.00,10.460000,,2013-01-01 16:42:00,
2013-01-01 08:53:00,32.0,24.0,30.60,East,90,7.0,21.0,72,-99.99,,,0.00,10.460000,,2013-01-01 16:53:00,
2013-01-01 09:02:00,32.0,24.0,30.60,East,90,7.0,21.0,72,-99.99,,,0.00,10.460000,,2013-01-01 17:02:00,
2013-01-01 09:12:00,32.0,24.0,30.60,East,90,7.0,21.0,72,-99.99,,,0.00,10.460000,,2013-01-01 17:12:00,
2013-01-01 09:33:00,33.0,24.0,30.63,East,80,6.0,14.0,70,-99.99,,,0.00,126.800003,,2013-01-01 17:33:00,
2013-01-01 09:42:00,33.0,24.0,-100.00,East,80,6.0,14.0,70,-99.99,,,0.00,126.800003,,2013-01-01 17:42:00,
2013-01-01 09:53:00,33.0,24.0,-100.00,East,80,6.0,14.0,70,-99.99,,,0.00,126.800003,,2013-01-01 17:53:00,
2013-01-01 10:03:00,33.0,24.0,-100.00,East,80,6.0,14.0,70,-99.99,,,0.00,126.800003,,2013-01-01 18:03:00,
2013-01-01 10:12:00,33.0,24.0,30.63,East,80,6.0,14.0,70,-99.99,,,0.00,126.800003,,2013-01-01 18:12:00,
2013-01-01 10:33:00,35.0,24.0,30.63,ENE,68,6.0,23.0,64,-99.99,,,0.00,241.270004,,2013-01-01 18:33:00,
2013-01-01 10:42:00,35.0,24.0,30.63,ENE,68,6.0,23.0,64,-99.99,,,0.00,241.270004,,2013-01-01 18:42:00,
2013-01-01 10:53:00,35.0,24.0,30.63,ENE,68,6.0,23.0,64,-99.99,,,0.00,241.270004,,2013-01-01 18:53:00,
2013-01-01 11:02:00,35.0,24.0,30.63,ENE,68,6.0,23.0,64,-99.99,,,0.00,241.270004,,2013-01-01 19:02:00,
2013-01-01 11:11:00,35.0,24.0,30.63,ENE,68,6.0,23.0,64,-99.99,,,0.00,241.270004,,2013-01-01 19:11:00,
2013-01-01 11:42:00,35.0,24.0,30.62,ENE,76,6.0,19.0,62,-99.99,,,0.00,312.170013,,2013-01-01 19:42:00,
2013-01-01 11:52:00,35.0,24.0,30.62,ENE,76,6.0,19.0,62,-99.99,,,0.00,312.170013,,2013-01-01 19:52:00,
2013-01-01 12:02:00,35.0,24.0,30.62,ENE,76,6.0,19.0,62,-99.99,,,0.00,312.170013,,2013-01-01 20:02:00,
2013-01-01 12:12:00,35.0,24.0,30.62,ENE,76,6.0,19.0,62,-99.99,,,0.00,312.170013,,2013-01-01 20:12:00,
2013-01-01 12:32:00,35.0,24.0,30.60,ENE,64,6.0,20.0,63,-99.99,,,0.00,115.639999,,2013-01-01 20:32:00,
2013-01-01 12:42:00,35.0,24.0,30.60,ENE,64,6.0,20.0,63,-99.99,,,0.00,115.639999,,2013-01-01 20:42:00,
2013-01-01 12:53:00,35.0,24.0,30.60,ENE,64,6.0,20.0,63,-99.99,,,0.00,115.639999,,2013-01-01 20:53:00,
2013-01-01 13:03:00,35.0,24.0,30.60,ENE,64,6.0,20.0,63,-99.99,,,0.00,115.639999,,2013-01-01 21:03:00,
2013-01-01 13:12:00,35.0,24.0,30.60,ENE,64,6.0,20.0,63,-99.99,,,0.00,115.639999,,2013-01-01 21:12:00,
2013-01-01 13:32:00,35.0,24.0,30.58,ENE,75,5.0,22.0,61,-99.99,,,0.00,318.559998,,2013-01-01 21:32:00,
2013-01-01 13:42:00,35.0,24.0,30.58,ENE,75,5.0,22.0,61,-99.99,,,0.00,318.559998,,2013-01-01 21:42:00,
2013-01-01 13:53:00,35.0,24.0,30.58,ENE,75,5.0,22.0,61,-99.99,,,0.00,318.559998,,2013-01-01 21:53:00,
2013-01-01 14:02:00,35.0,24.0,30.58,ENE,75,5.0,22.0,61,-99.99,,,0.00,318.559998,,2013-01-01 22:02:00,
2013-01-01 14:12:00,35.0,24.0,30.58,ENE,75,5.0,22.0,61,-99.99,,,0.00,318.559998,,2013-01-01 22:12:00,
2013-01-01 14:32:00,35.0,24.0,30.58,ENE,78,5.0,20.0,61,-99.99,,,0.00,299.149994,,2013-01-01 22:32:00,
2013-01-01 14:42:00,35.0,24.0,30.59,ENE,78,6.0,17.0,62,-99.99,,,0.00,261.609985,,2013-01-01 22:42:00,
2013-01-01 14:52:00,35.0,24.0,30.59,ENE,78,6.0,17.0,62,-99.99,,,0.00,261.609985,,2013-01-01 22:52:00,
2013-01-01 15:02:00,35.0,24.0,-100.00,ENE,78,6.0,17.0,62,-99.99,,,0.00,261.609985,,2013-01-01 23:02:00,
2013-01-01 15:12:00,35.0,24.0,-100.00,ENE,78,6.0,17.0,62,-99.99,,,0.00,261.609985,,2013-01-01 23:12:00,
2013-01-01 15:32:00,33.0,23.0,30.59,ENE,72,5.0,16.0,65,-99.99,,,0.00,55.200001,,2013-01-01 23:32:00,
2013-01-01 15:42:00,33.0,23.0,-100.00,ENE,72,5.0,16.0,65,-99.99,,,0.00,55.200001,,2013-01-01 23:42:00,
2013-01-01 15:52:00,33.0,23.0,-100.00,ENE,72,5.0,16.0,65,-99.99,,,0.00,55.200001,,2013-01-01 23:52:00,
2013-01-01 16:02:00,33.0,23.0,-100.00,ENE,72,5.0,16.0,65,-99.99,,,0.00,55.200001,,2013-01-02 00:02:00,
2013-01-01 16:12:00,33.0,23.0,-100.00,ENE,72,5.0,16.0,65,-99.99,,,0.00,55.200001,,2013-01-02 00:12:00,
2013-01-01 16:42:00,32.0,23.0,30.60,ENE,78,4.0,18.0,67,-99.99,,,0.00,16.150000,,2013-01-02 00:42:00,
2013-01-01 16:52:00,32.0,23.0,30.60,ENE,78,4.0,18.0,67,-99.99,,,0.00,16.150000,,2013-01-02 00:52:00,
2013-01-01 17:02:00,32.0,23.0,-100.00,ENE,78,4.0,18.0,67,-99.99,,,0.00,16.150000,,2013-01-02 01:02:00,
2013-01-01 17:11:00,32.0,23.0,-100.00,ENE,78,4.0,18.0,67,-99.99,,,0.00,16.150000,,2013-01-02 01:11:00,
2013-01-01 17:32:00,32.0,22.0,30.60,ENE,63,5.0,19.0,66,-99.99,,,0.00,0.000000,,2013-01-02 01:32:00,
2013-01-01 17:42:00,32.0,22.0,-100.00,ENE,63,5.0,19.0,66,-99.99,,,0.00,0.000000,,2013-01-02 01:42:00,
2013-01-01 17:52:00,32.0,22.0,-100.00,ENE,63,5.0,19.0,66,-99.99,,,0.00,0.000000,,2013-01-02 01:52:00,
2013-01-01 18:02:00,32.0,22.0,-100.00,ENE,63,5.0,19.0,66,-99.99,,,0.00,0.000000,,2013-01-02 02:02:00,
2013-01-01 18:12:00,32.0,22.0,-100.00,ENE,63,5.0,19.0,66,-99.99,,,0.00,0.000000,,2013-01-02 02:12:00,
2013-01-01 18:32:00,32.0,22.0,30.61,ENE,65,5.0,16.0,65,-99.99,,,0.00,0.000000,,2013-01-02 02:32:00,
2013-01-01 18:42:00,32.0,22.0,-100.00,ENE,65,5.0,16.0,65,-99.99,,,0.00,0.000000,,2013-01-02 02:42:00,
2013-01-01 18:53:00,32.0,22.0,-100.00,ENE,65,5.0,16.0,65,-99.99,,,0.00,0.000000,,2013-01-02 02:53:00,
2013-01-01 19:02:00,32.0,22.0,-100.00,ENE,65,5.0,16.0,65,-99.99,,,0.00,0.000000,,2013-01-02 03:02:00,
2013-01-01 19:11:00,32.0,22.0,-100.00,ENE,65,5.0,16.0,65,-99.99,,,0.00,0.000000,,2013-01-02 03:11:00,
2013-01-01 19:42:00,32.0,22.0,30.61,ENE,58,4.0,14.0,66,-99.99,,,0.00,0.000000,,2013-01-02 03:42:00,
2013-01-01 19:53:00,32.0,22.0,30.61,ENE,58,4.0,14.0,66,-99.99,,,0.00,0.000000,,2013-01-02 03:53:00,
2013-01-01 20:02:00,32.0,22.0,30.61,ENE,58,4.0,14.0,66,-99.99,,,0.00,0.000000,,2013-01-02 04:02:00,
2013-01-01 20:12:00,32.0,22.0,-100.00,ENE,58,4.0,14.0,66,-99.99,,,0.00,0.000000,,2013-01-02 04:12:00,
2013-01-01 20:32:00,32.0,22.0,30.60,ENE,70,3.0,14.0,67,-99.99,,,0.00,0.000000,,2013-01-02 04:32:00,
2013-01-01 20:42:00,32.0,22.0,30.60,ENE,70,3.0,14.0,67,-99.99,,,0.00,0.000000,,2013-01-02 04:42:00,
2013-01-01 20:52:00,32.0,22.0,30.60,ENE,70,3.0,14.0,67,-99.99,,,0.00,0.000000,,2013-01-02 04:52:00,
2013-01-01 21:03:00,32.0,22.0,30.60,ENE,70,3.0,14.0,67,-99.99,,,0.00,0.000000,,2013-01-02 05:03:00,
2013-01-01 21:12:00,32.0,22.0,30.60,ENE,70,3.0,14.0,67,-99.99,,,0.00,0.000000,,2013-01-02 05:12:00,
2013-01-01 21:42:00,32.0,22.0,30.60,ENE,70,3.0,12.0,67,-99.99,,,0.00,0.000000,,2013-01-02 05:42:00,
2013-01-01 21:53:00,32.0,22.0,30.60,ENE,70,3.0,12.0,67,-99.99,,,0.00,0.000000,,2013-01-02 05:53:00,
2013-01-01 22:02:00,32.0,22.0,30.60,ENE,70,3.0,12.0,67,-99.99,,,0.00,0.000000,,2013-01-02 06:02:00,
2013-01-01 22:11:00,32.0,22.0,30.60,ENE,70,3.0,12.0,67,-99.99,,,0.00,0.000000,,2013-01-02 06:11:00,
2013-01-01 22:32:00,32.0,22.0,30.59,East,79,4.0,16.0,67,-99.99,,,0.00,0.000000,,2013-01-02 06:32:00,
2013-01-01 22:42:00,32.0,22.0,30.59,East,79,4.0,16.0,67,-99.99,,,0.00,0.000000,,2013-01-02 06:42:00,
2013-01-01 22:52:00,32.0,22.0,30.59,East,79,4.0,16.0,67,-99.99,,,0.00,0.000000,,2013-01-02 06:52:00,
2013-01-01 23:02:00,32.0,22.0,30.59,East,79,4.0,16.0,67,-99.99,,,0.00,0.000000,,2013-01-02 07:02:00,
2013-01-01 23:12:00,32.0,22.0,30.59,East,79,4.0,16.0,67,-99.99,,,0.00,0.000000,,2013-01-02 07:12:00,
2013-01-01 23:32:00,32.0,22.0,30.59,ENE,65,4.0,18.0,66,-99.99,,,0.00,0.000000,,2013-01-02 07:32:00,
2013-01-01 23:42:00,32.0,22.0,30.59,ENE,74,5.0,13.0,66,-99.99,,,0.00,0.000000,,2013-01-02 07:42:00,
2013-01-01 23:52:00,32.0,22.0,30.59,ENE,74,5.0,13.0,66,-99.99,,,0.00,0.000000,,2013-01-02 07:52:00,